Theta_e
331 325 320 315 304 297 293 296 301 303 304 309 313 316 314 318 314 307 330 338 342 341 342 343 346 348 347 345 345 345 344 345 343 342 342 341 340 339 336 335 339 336 334 335 335 334 334 334 334
327 324 316 308 299 291 291 297 300 305 309 311 315 314 312 313 324 329 331 340 342 341 342 342 344 347 346 345 346 345 343 342 343 342 339 340 339 340 337 336 336 335 336 334 334 334 334 333 333
319 322 309 303 296 293 293 299 305 307 307 306 306 314 314 318 325 328 336 341 342 341 342 342 344 346 345 344 345 344 343 341 341 340 337 336 339 338 340 337 337 337 339 337 334 334 333 332 332
313 314 308 296 293 297 298 304 307 306 306 309 311 310 318 326 328 333 340 341 340 340 341 341 345 346 345 345 344 345 343 342 341 340 338 336 337 339 338 339 338 337 333 335 336 334 333 332 331
315 309 299 296 295 297 301 307 308 306 305 305 308 307 314 327 332 338 338 339 338 339 340 341 343 345 345 344 345 344 344 342 341 340 339 338 337 338 338 339 338 336 335 335 334 333 332 332 332
308 306 297 293 296 299 302 308 309 305 305 307 312 312 314 328 333 335 337 338 339 338 340 340 337 339 342 343 343 341 342 342 342 340 340 337 335 337 334 337 337 335 333 331 333 332 331 331 333
306 303 298 298 299 299 304 307 305 306 306 306 314 310 316 324 330 333 336 338 338 340 340 338 337 336 335 338 338 339 341 341 341 340 339 337 337 337 335 335 336 335 334 331 330 332 331 329 328
307 304 299 298 298 299 304 307 307 306 306 312 318 310 313 323 330 334 337 337 337 337 339 336 335 335 335 334 331 333 335 335 337 336 334 333 332 333 332 330 333 335 335 334 332 331 331 330 329
307 300 297 299 301 302 305 306 309 309 309 312 315 316 319 329 330 330 335 336 337 336 336 336 335 334 333 333 331 328 330 330 330 330 328 326 326 327 327 326 330 334 334 333 332 331 332 331 329
300 296 299 302 305 304 306 306 308 307 308 312 317 323 327 329 328 326 328 328 330 330 332 335 334 333 332 334 330 329 330 328 327 328 328 328 325 323 325 323 326 329 328 330 332 332 330 327 321
300 295 300 303 310 309 306 306 307 306 303 312 315 321 325 326 326 325 327 329 330 332 333 333 334 333 331 332 329 327 327 326 326 325 326 327 326 323 321 321 321 322 320 321 325 323 322 322 320
296 301 301 305 310 309 307 309 305 306 308 312 320 325 325 325 325 325 325 327 328 329 331 333 332 332 333 333 330 328 327 325 323 325 324 324 322 321 320 321 320 320 321 320 319 318 319 321 321
297 299 301 304 307 307 309 306 306 306 309 312 321 323 324 325 326 327 328 327 329 329 331 332 333 333 332 332 333 330 328 327 326 324 325 325 322 320 320 319 318 318 318 318 317 318 318 319 320
298 300 299 301 303 305 303 302 304 307 310 313 320 320 321 323 324 325 325 326 328 330 330 332 332 333 333 332 331 333 332 331 329 328 325 326 324 322 321 319 319 318 319 318 318 317 317 318 319
300 294 297 296 300 301 303 297 300 306 305 310 314 318 320 322 323 324 327 326 327 330 331 330 331 332 331 331 332 332 332 332 331 332 330 327 326 324 323 322 320 319 319 319 318 317 316 315 316
295 294 288 293 299 302 299 292 298 302 302 302 306 308 312 319 320 324 326 327 327 328 329 331 333 332 331 331 330 332 331 332 332 330 331 330 327 326 323 322 321 321 319 317 316 315 314 314 314
289 283 287 290 297 299 298 293 299 298 299 300 299 301 306 310 311 317 322 324 326 327 329 330 332 331 331 331 331 330 330 331 332 333 330 330 330 328 326 324 322 321 319 317 316 315 314 313 313
284 285 286 286 290 296 295 294 297 296 296 295 296 296 298 301 308 312 314 319 323 325 327 330 331 331 331 331 330 328 328 330 330 330 330 332 331 330 328 327 325 323 320 318 315 315 314 313 313
291 288 284 286 291 292 292 294 298 298 295 295 295 295 296 297 301 303 304 313 315 318 320 324 326 330 330 328 327 327 327 328 329 331 330 329 330 331 330 328 327 325 323 321 318 315 314 313 314
289 285 282 287 292 291 288 290 295 293 294 295 295 295 296 296 299 301 301 305 311 313 314 314 320 324 330 330 329 327 328 327 331 331 330 331 329 330 331 330 329 327 325 323 322 320 319 319 318
289 286 284 284 287 286 285 283 287 291 293 294 295 296 296 298 299 299 299 302 304 306 308 309 310 315 324 326 323 321 322 321 323 325 328 329 329 330 330 330 330 329 327 326 324 323 321 320 320
285 290 289 287 284 279 283 275 281 285 286 289 292 291 295 297 298 299 299 298 299 302 304 306 307 306 307 309 316 318 322 320 320 323 326 327 328 327 327 329 330 330 328 327 326 325 324 323 320
286 290 289 288 283 281 279 276 281 283 283 285 287 290 293 296 296 298 299 299 303 305 305 307 309 309 311 311 309 310 314 318 319 320 322 323 323 324 325 328 329 328 328 328 327 324 324 324 323
291 288 287 285 283 276 281 279 278 282 284 286 288 289 292 293 293 294 297 303 305 306 307 307 306 303 305 306 309 309 310 314 316 316 317 315 310 309 311 312 315 316 317 318 324 325 324 324 324
289 285 273 270 269 273 280 279 283 286 286 287 288 288 290 291 294 298 300 302 302 302 301 302 301 298 299 301 301 303 305 309 312 311 310 305 302 303 303 305 306 307 308 308 311 311 309 309 315
287 285 277 270 270 274 281 276 281 290 293 293 291 291 292 292 296 297 298 299 299 299 297 297 297 295 296 296 296 297 297 297 297 297 298 297 297 297 300 300 301 301 302 304 306 305 305 304 305
285 283 286 280 276 274 277 280 285 289 290 290 290 290 291 290 295 296 296 296 295 294 294 293 293 292 292 292 293 293 294 294 293 294 295 295 297 297 297 297 297 297 298 300 300 298 300 299 300
289 290 280 280 266 266 276 276 279 283 287 288 289 289 291 293 294 294 293 292 291 291 291 291 291 291 290 290 290 290 291 293 294 294 293 293 293 294 294 294 294 294 294 294 294 293 294 294 294
287 285 285 283 278 273 271 275 282 286 289 289 289 290 292 293 294 292 291 290 289 288 288 288 289 289 287 287 287 287 287 288 288 289 290 290 290 291 291 291 292 290 289 290 290 290 290 290 290
291 287 287 280 277 280 278 276 285 286 287 288 290 290 293 293 292 290 288 287 286 286 286 286 287 286 285 285 285 285 285 285 285 286 286 287 287 288 288 289 288 287 287 287 287 286 287 287 286
Wind_Speed
9 5 2 5 5 5 1 2 3 2 3 1 2 9 7 4 2 4 3 9 17 13 10 10 13 14 15 15 14 13 13 13 15 14 15 14 12 13 13 11 10 12 14 13 13 13 12 10 10
7 2 4 3 5 3 4 2 4 4 5 8 9 4 5 2 2 7 6 11 17 13 11 10 12 13 15 15 14 13 13 12 12 12 12 15 12 9 13 12 11 12 11 14 12 12 10 9 9
5 1 4 5 4 5 5 4 6 3 3 2 4 5 4 3 4 7 10 14 14 12 9 9 12 13 13 12 11 13 13 12 12 11 10 11 13 11 12 13 11 10 13 11 12 10 8 8 8
4 5 5 5 2 2 7 7 6 5 2 5 5 6 3 4 9 8 14 15 13 11 9 11 13 13 13 12 11 12 13 13 11 12 12 11 11 9 6 14 11 10 10 10 11 9 7 6 6
4 4 4 3 2 1 3 7 8 5 4 3 4 3 2 3 7 17 15 13 13 9 9 10 12 13 13 12 12 11 12 13 13 13 11 9 9 9 6 10 12 7 9 12 9 7 5 4 3
5 4 4 2 2 1 2 6 9 5 3 2 6 5 1 3 14 12 13 12 12 11 9 7 10 10 11 11 10 9 9 12 13 13 13 11 7 8 4 6 9 9 9 6 9 7 5 4 3
5 4 3 4 6 4 7 6 9 8 8 4 9 5 2 3 8 9 10 9 9 11 10 7 6 7 9 10 11 10 8 12 12 13 13 13 11 8 5 6 7 9 9 7 7 6 4 2 1
5 4 0 3 5 5 4 6 6 7 5 5 8 7 6 7 9 10 9 10 10 8 10 8 6 6 6 6 9 9 10 10 10 10 10 11 11 11 8 6 4 9 6 8 7 7 6 4 3
3 4 2 2 3 5 3 5 3 2 7 3 1 7 6 14 11 10 10 8 9 6 8 9 7 6 6 6 6 8 9 8 9 8 10 8 4 7 8 6 7 6 8 7 7 6 7 6 6
4 4 6 2 2 5 6 5 7 6 3 5 4 5 13 14 13 13 11 10 8 9 7 9 9 8 6 5 5 5 5 4 4 4 5 4 5 4 5 6 8 7 7 7 7 7 8 6 3
3 6 4 2 3 3 2 3 2 10 2 7 11 12 14 11 11 12 11 13 14 11 8 8 9 9 8 6 4 3 3 3 3 6 5 5 4 4 3 3 3 3 6 3 5 4 3 5 4
2 4 3 2 4 2 2 5 3 5 8 9 12 19 15 15 15 14 13 11 9 9 12 10 8 7 9 5 5 5 4 3 3 4 6 4 3 4 4 3 4 4 3 5 4 3 4 5 5
4 3 2 2 0 1 1 1 2 4 4 4 11 10 14 15 15 11 10 9 10 12 11 11 10 9 7 7 6 6 6 5 5 5 6 5 4 4 4 4 4 4 4 4 4 4 4 5 5
5 3 0 3 3 3 3 2 3 3 5 7 16 13 10 13 14 8 8 11 13 13 13 12 12 10 8 7 6 6 6 7 6 5 6 7 5 5 4 4 5 4 4 4 4 5 5 5 5
3 2 3 3 4 4 5 4 10 5 4 7 9 11 12 13 10 15 16 14 14 12 12 12 13 11 10 8 7 5 5 5 6 6 9 9 8 7 6 5 5 5 4 6 4 4 3 4 4
5 4 2 4 6 4 5 10 7 8 5 9 9 8 8 13 12 14 13 14 12 11 13 12 11 12 11 9 6 5 4 5 6 4 5 9 9 9 7 5 5 5 4 4 4 4 4 4 4
3 4 4 5 7 5 6 7 7 2 6 10 8 9 9 9 9 12 13 14 13 14 14 13 13 13 13 11 8 7 7 5 4 5 5 6 9 9 8 6 5 5 4 4 4 4 4 4 4
7 5 5 7 5 7 7 9 9 3 2 5 7 9 9 9 12 10 10 10 10 12 12 13 12 13 13 8 6 4 4 6 4 5 5 7 7 9 7 6 6 6 4 4 3 5 4 3 4
6 4 6 3 5 4 11 9 18 9 4 9 9 8 8 9 9 9 9 9 8 5 8 11 11 11 9 6 6 5 8 7 6 7 8 7 7 9 8 6 6 6 7 7 7 4 5 4 3
3 4 3 4 1 5 4 11 14 8 8 9 8 9 10 6 8 8 7 7 10 9 11 8 10 10 11 8 6 4 6 6 8 7 8 10 9 9 6 8 8 8 7 7 8 7 4 4 5
10 6 4 4 3 2 4 8 11 8 9 11 11 12 8 14 13 9 8 8 6 7 9 9 9 11 11 12 4 2 2 2 3 3 5 8 8 9 9 9 8 8 7 7 9 8 9 7 4
9 8 7 5 3 5 2 8 7 7 11 7 12 10 16 16 9 10 8 7 8 8 4 5 5 3 2 6 5 7 8 8 5 5 6 7 9 8 8 8 7 8 6 7 7 7 8 7 8
5 7 8 5 3 2 2 2 7 3 6 10 11 13 17 17 12 12 10 8 4 5 5 6 7 6 3 3 4 5 6 5 3 3 6 5 3 2 2 1 2 3 3 6 7 5 8 8 8
5 6 7 5 3 6 11 7 6 7 7 6 8 10 13 14 8 6 3 6 5 5 6 6 6 5 5 5 4 3 6 5 4 3 2 4 4 4 5 5 6 6 6 5 3 4 6 7 6
6 9 1 3 2 9 2 8 15 6 6 8 9 8 9 6 9 9 11 9 7 7 6 6 6 5 5 6 5 4 3 3 5 4 4 6 4 3 5 5 7 6 5 5 5 6 6 7 6
13 12 7 9 6 4 5 12 8 14 16 15 10 10 8 7 8 8 8 8 7 7 7 7 7 6 5 5 5 5 6 4 5 6 5 5 5 5 5 4 8 7 6 5 6 5 5 7 6
7 9 6 4 2 2 6 8 9 10 9 9 12 9 12 5 7 10 8 7 7 7 7 7 7 7 6 6 5 6 5 6 7 7 7 5 6 6 6 6 7 7 6 7 7 6 5 6 4
9 9 7 1 4 5 6 6 8 2 9 6 5 7 5 5 8 7 7 7 5 6 6 7 6 7 6 6 5 5 6 6 7 7 8 7 7 6 6 7 7 8 7 8 7 5 6 7 5
7 11 5 5 6 6 2 8 9 15 12 10 8 5 6 9 10 9 7 6 6 6 6 6 6 7 6 6 5 6 6 7 7 7 7 7 7 7 8 7 8 8 8 8 8 7 8 8 7
18 13 17 8 11 9 3 9 3 1 1 6 8 5 6 4 4 5 6 7 6 6 6 7 6 7 5 5 6 6 6 6 7 7 8 7 8 7 8 8 9 9 10 9 9 9 8 8 8
Wind_Direction
321 305 138 53 63 66 160 245 166 104 61 14 50 101 108 60 105 181 149 146 134 143 148 144 141 136 134 133 129 123 120 118 122 119 114 109 109 115 107 103 98 93 98 87 91 91 88 80 67
307 314 50 88 87 80 264 249 142 174 171 114 95 101 58 93 110 122 102 150 142 143 148 147 143 145 145 143 140 134 130 128 127 127 130 126 123 133 110 110 94 104 103 102 91 89 83 70 57
294 161 89 102 115 173 188 178 167 167 122 105 95 59 111 145 100 149 137 145 136 142 145 147 145 149 150 150 147 145 135 135 137 131 125 137 129 125 130 123 115 105 104 107 107 98 85 64 44
359 12 27 87 273 206 166 175 170 133 65 70 117 65 37 231 155 147 140 142 141 145 144 153 152 153 153 150 156 154 143 142 133 129 135 141 142 129 136 126 124 131 122 109 96 104 93 74 45
31 63 57 79 337 65 131 172 154 142 160 131 115 150 56 358 120 138 145 149 145 144 148 156 156 157 157 153 148 148 157 153 146 144 138 134 149 130 146 135 136 138 123 116 114 110 103 82 52
31 89 63 138 193 87 244 192 140 137 142 154 84 99 192 112 136 151 148 151 144 144 152 156 158 156 158 155 152 149 146 167 156 151 140 144 143 140 152 141 136 151 139 137 123 118 103 88 66
97 78 182 195 184 172 191 180 153 156 148 190 147 97 153 183 149 143 143 133 143 148 153 153 159 164 164 163 164 160 153 155 164 161 159 157 156 163 166 154 177 160 153 165 158 154 145 123 91
105 95 210 260 175 204 191 167 141 139 176 113 149 164 186 211 151 135 139 143 149 156 156 158 161 163 166 171 173 170 166 166 175 171 170 163 165 165 161 160 182 176 182 168 172 181 177 192 221
78 67 207 230 156 222 172 135 173 110 118 98 149 153 184 159 133 129 152 154 159 170 159 162 169 174 173 175 186 181 177 176 178 169 163 165 172 167 176 184 199 215 195 186 190 209 189 210 236
93 136 207 271 225 225 171 145 153 109 117 23 61 44 130 153 159 155 169 173 174 174 175 170 177 182 176 182 176 190 185 183 182 179 176 170 178 192 178 191 202 209 203 210 213 227 204 209 232
177 197 194 307 321 16 167 136 183 127 223 201 167 155 150 164 173 168 185 180 182 181 180 183 179 183 179 188 172 179 183 183 192 193 191 192 184 199 200 194 211 208 215 217 226 234 225 218 226
195 238 197 299 331 26 100 302 154 171 205 176 177 163 159 172 182 184 184 187 177 182 190 185 179 182 188 175 174 183 182 190 198 205 200 190 197 200 207 196 199 197 198 211 219 225 238 242 240
189 242 219 106 292 242 156 109 236 228 216 124 143 164 175 181 190 196 189 184 183 192 193 190 181 189 192 179 175 178 192 187 201 200 206 193 199 198 194 205 197 203 200 209 219 224 232 241 243
197 183 314 277 185 258 201 202 348 230 184 126 154 180 188 189 197 193 195 199 192 197 199 191 191 190 187 194 184 183 184 195 198 199 202 201 196 195 191 198 209 216 205 210 211 213 220 235 231
144 222 355 225 202 242 156 269 231 200 83 154 188 191 192 203 193 202 207 205 197 202 197 195 196 191 196 201 197 198 214 186 192 200 201 201 200 202 197 202 209 213 209 215 220 233 231 244 246
122 71 173 277 172 233 132 255 262 231 197 217 222 220 216 218 205 210 210 211 204 198 190 191 193 192 195 198 196 212 214 211 221 202 190 197 201 201 202 207 217 211 200 204 204 213 229 234 238
349 186 194 307 206 154 178 252 253 268 195 244 211 232 224 228 236 228 214 208 201 198 193 190 187 186 192 195 195 200 207 206 216 220 211 207 198 199 204 209 211 203 207 209 208 223 203 229 250
171 171 211 199 235 196 212 243 269 232 197 244 271 244 232 239 232 225 226 216 204 197 190 191 187 191 189 187 189 195 211 224 216 219 220 211 200 197 199 212 216 199 201 220 209 221 214 213 240
143 161 171 214 255 171 226 223 241 250 240 268 259 255 253 232 242 246 235 225 223 214 184 184 179 190 171 170 175 201 218 218 224 227 218 212 209 198 186 201 209 206 212 214 201 197 214 236 210
158 157 206 287 306 183 254 253 254 227 243 232 237 247 241 260 263 247 246 214 199 197 202 196 188 181 186 184 191 176 185 211 212 209 213 219 214 216 206 202 206 208 215 211 212 209 213 231 186
225 191 183 202 352 337 6 278 253 235 224 247 241 237 233 230 240 240 231 229 206 218 202 194 199 186 187 190 162 118 91 53 133 204 220 222 209 216 214 211 207 208 210 220 214 204 209 231 206
216 179 184 209 134 230 110 277 265 229 235 232 247 230 235 235 230 228 225 214 212 228 205 188 176 174 177 167 173 186 208 213 199 188 202 201 201 207 205 218 217 203 208 223 213 206 211 214 236
206 161 181 172 147 66 236 308 258 270 258 253 242 231 233 233 213 217 224 206 161 137 146 122 106 87 62 129 170 187 205 216 200 200 191 190 152 60 74 124 221 230 217 226 217 206 207 210 226
153 90 48 50 99 256 218 192 234 204 197 248 242 233 228 230 218 190 147 131 123 101 96 106 100 69 57 63 37 224 217 216 185 183 148 88 85 70 58 55 74 61 52 23 336 251 233 230 229
169 138 31 1 336 235 263 200 249 232 243 231 242 269 260 206 171 163 158 155 138 132 117 107 101 80 65 72 66 62 77 102 122 102 113 120 103 77 65 61 70 65 56 50 31 50 39 35 19
193 181 155 189 201 230 150 232 247 236 241 239 229 236 272 189 183 155 130 139 148 139 122 115 116 110 92 86 77 68 69 74 80 90 98 95 98 91 80 74 77 70 62 61 57 49 59 42 45
194 200 178 105 45 68 215 286 291 261 266 230 232 227 234 188 149 147 152 147 135 128 127 128 119 108 99 93 84 74 74 82 92 85 82 87 98 96 80 79 81 66 49 68 64 46 51 68 11
186 160 188 84 141 251 262 264 237 310 257 275 250 215 167 139 145 149 149 144 140 136 125 114 111 114 109 96 84 75 69 76 88 89 87 86 84 89 90 77 72 77 63 60 74 58 46 59 41
175 197 187 154 166 194 266 257 216 210 210 221 237 227 190 171 170 160 157 145 131 121 120 116 105 108 92 84 79 78 67 66 67 78 76 76 76 74 76 76 80 76 64 56 60 64 47 58 44
206 209 196 194 220 233 262 260 314 184 182 202 258 178 155 173 153 140 141 146 150 140 135 135 127 115 105 94 90 86 86 81 83 81 81 73 80 69 72 75 74 70 66 62 66 69 59 58 50